Location: Berg
(48.5667°N, 13.9833°E)
Time: 23:23:39
(UTC+00:00)

SL-16 R/B - Pass Details

Date: 09 April 2020
Orbit: 985 x 1007 km, 99.5° (Epoch: 27 May)

Event Time Altitude Azimuth Distance (km) Brightness Sun altitude
Exits shadow 23:48:39 40° 87° (E) 1,439 3.4 -32.6°
Maximum altitude 23:49:39 43° 64° (ENE) 1,377 3.4 -32.6°
Drops below altitude 10° 23:55:28 10° 355° (N) 2,774 5.6 -32.3°
Sets 23:58:03 0° 349° (N) 3,724 6.4 -32.2°
